TimeAKDT,TemperatureF,Dew PointF,Humidity,Sea Level PressureIn,VisibilityMPH,Wind Direction,Wind SpeedMPH,Gust SpeedMPH,PrecipitationIn,Events,Conditions,WindDirDegrees,DateUTC
12:53 AM,46.0,34.0,63,30.11,10.0,NNW,6.9,-,N/A,,Partly Cloudy,340,2013-05-21 08:53:00
1:53 AM,46.0,34.0,63,30.09,10.0,North,6.9,-,N/A,,Mostly Cloudy,350,2013-05-21 09:53:00
2:53 AM,46.9,35.1,63,30.07,10.0,North,10.4,16.1,N/A,,Overcast,350,2013-05-21 10:53:00
3:53 AM,46.0,35.1,66,30.06,10.0,NNW,10.4,19.6,N/A,,Mostly Cloudy,340,2013-05-21 11:53:00
4:53 AM,46.0,35.1,66,30.05,10.0,NNW,11.5,-,N/A,,Mostly Cloudy,340,2013-05-21 12:53:00
5:53 AM,48.0,34.0,58,30.04,10.0,NNW,12.7,19.6,N/A,,Clear,340,2013-05-21 13:53:00
6:53 AM,50.0,34.0,54,30.03,10.0,NNW,13.8,-,N/A,,Mostly Cloudy,340,2013-05-21 14:53:00
7:53 AM,53.1,35.1,50,30.02,10.0,NNW,12.7,20.7,N/A,,Mostly Cloudy,340,2013-05-21 15:53:00
8:53 AM,55.0,36.0,49,30.01,10.0,NNW,12.7,23.0,N/A,,Mostly Cloudy,330,2013-05-21 16:53:00
9:53 AM,57.9,37.0,46,30.00,10.0,NNW,15.0,23.0,N/A,,Partly Cloudy,330,2013-05-21 17:53:00
10:53 AM,59.0,39.9,49,29.98,10.0,NW,10.4,-,N/A,,Clear,310,2013-05-21 18:53:00
11:53 AM,61.0,39.0,44,29.97,10.0,NW,13.8,-,N/A,,Partly Cloudy,320,2013-05-21 19:53:00
12:53 PM,62.1,37.9,41,29.96,10.0,NW,15.0,21.9,N/A,,Clear,320,2013-05-21 20:53:00
1:53 PM,63.0,37.9,40,29.95,10.0,NW,15.0,20.7,N/A,,Scattered Clouds,320,2013-05-21 21:53:00
2:53 PM,62.1,37.9,41,29.95,10.0,NW,15.0,-,N/A,,Scattered Clouds,320,2013-05-21 22:53:00
3:53 PM,64.0,37.0,37,29.94,10.0,NW,12.7,21.9,N/A,,Scattered Clouds,320,2013-05-21 23:53:00
4:53 PM,64.0,36.0,35,29.94,10.0,NW,13.8,23.0,N/A,,Mostly Cloudy,320,2013-05-22 00:53:00
5:53 PM,63.0,35.1,35,29.93,10.0,NNW,12.7,19.6,N/A,,Clear,330,2013-05-22 01:53:00
6:53 PM,62.1,36.0,38,29.93,10.0,NNW,5.8,-,N/A,,Clear,330,2013-05-22 02:53:00
7:53 PM,60.1,35.1,39,29.93,10.0,NNW,8.1,-,N/A,,Clear,340,2013-05-22 03:53:00
8:53 PM,57.0,35.1,44,29.93,10.0,NNW,5.8,-,N/A,,Clear,340,2013-05-22 04:53:00
9:53 PM,55.0,37.0,51,29.93,10.0,NNW,5.8,-,N/A,,Clear,330,2013-05-22 05:53:00
10:53 PM,54.0,36.0,51,29.92,10.0,NNW,5.8,-,N/A,,Clear,340,2013-05-22 06:53:00
11:53 PM,53.1,37.0,55,29.92,10.0,NW,9.2,-,N/A,,Clear,320,2013-05-22 07:53:00